Location: Unspecified
(0.0000°N, 0.0000°E)
Time: 13:15:10
(UTC+00:00)

Amsat-Oscar-6 - Pass Details

Date: 03 May 2019
Orbit: 1448 x 1455 km, 101.8° (Epoch: 23 May)

Event Time Altitude Azimuth Distance (km) Brightness Sun altitude
Rises 03:59:02 0° 360° (N) 4,533 ? -28.3°
Reaches altitude 10° 04:02:00 10° 353° (N) 3,558 ? -27.6°
Maximum altitude 04:09:35 41° 287° (WNW) 2,004 ? -25.8°
Enters shadow 04:09:55 40° 281° (W) 2,008 ? -25.7°
